SCP
4 4 4 4 3 3 4 4 3 3 3 3 3 2 2 2 2 2 2 4 5 6 5 5 4 4 4 3 3 3 2 2 2 2 2 2 2 2 2 2 1 1 1
5 4 4 4 4 4 4 4 3 3 3 3 3 2 2 2 2 2 2 3 4 5 5 5 4 4 4 4 3 3 3 2 2 2 2 2 2 2 2 2 1 1 1
5 5 4 4 4 4 4 4 4 4 4 4 4 3 2 2 2 2 1 2 3 3 4 4 4 4 4 4 4 3 3 3 2 2 2 2 2 2 2 2 1 1 1
5 5 5 4 5 5 4 4 5 6 5 5 5 4 3 2 2 1 1 1 2 2 3 3 4 4 4 4 4 4 4 3 3 3 2 2 2 2 2 2 2 1 1
7 7 6 5 5 5 5 5 6 7 6 5 5 4 3 3 2 2 1 1 1 2 2 2 3 3 3 4 4 4 4 3 3 3 3 3 3 3 2 2 2 2 2
8 8 7 6 5 5 5 5 7 8 7 5 4 3 3 3 2 2 2 1 1 2 2 2 2 3 3 3 3 3 3 3 3 3 3 3 3 3 3 3 2 2 2
8 8 7 6 6 6 5 6 8 7 6 5 4 3 2 2 2 2 2 1 1 2 2 2 2 2 3 3 3 3 3 3 3 3 3 3 3 3 3 3 3 2 2
7 6 6 6 6 6 6 7 7 6 5 4 3 2 2 1 1 1 1 1 1 2 2 2 2 3 3 2 2 2 2 3 3 3 3 3 3 3 3 4 3 3 3
7 6 6 6 6 6 6 6 6 5 4 4 3 3 2 1 1 1 1 1 1 1 1 2 2 3 3 3 2 2 2 2 3 3 3 3 2 2 2 3 3 3 3
7 7 7 7 7 7 6 6 5 5 4 4 3 3 2 2 1 1 1 1 1 1 1 2 2 3 3 3 2 1 1 2 2 3 3 3 2 2 2 2 3 3 3
8 8 8 8 8 7 7 6 5 4 4 4 3 3 2 2 1 1 1 1 1 1 2 2 2 3 4 4 3 1 1 1 2 2 3 2 2 2 2 2 2 2 2
8 8 8 8 8 7 7 6 5 4 4 4 3 2 2 1 1 1 1 1 1 1 2 2 2 3 4 4 3 2 1 1 1 2 2 2 2 2 2 1 1 2 2
6 6 6 6 6 6 5 5 4 4 4 3 2 2 1 1 1 1 1 1 1 1 1 2 2 2 3 3 2 1 1 1 1 1 1 1 1 2 1 1 1 1 1
4 4 4 4 5 5 4 4 3 3 3 2 2 2 1 1 1 1 1 1 1 1 1 1 2 2 2 2 1 1 1 1 1 1 1 1 1 1 1 1 1 1 1
2 3 3 4 4 4 3 3 2 2 2 2 1 1 1 1 1 1 1 1 1 1 1 1 1 1 1 1 1 1 1 1 0 0 0 1 1 1 1 1 1 1 1
2 3 3 3 3 3 2 2 2 2 1 1 1 1 1 1 1 1 1 1 1 1 0 1 1 1 1 1 1 1 1 0 0 0 0 0 0 0 0 1 1 1 1
2 2 3 3 2 2 2 1 1 1 1 1 1 1 1 1 1 1 1 1 1 1 1 0 1 1 1 1 1 1 1 0 0 0 0 0 0 0 0 0 1 1 1
2 2 2 1 1 1 1 1 1 1 1 1 1 1 1 1 1 1 1 1 1 1 1 0 0 1 1 1 1 1 1 0 0 0 0 0 0 0 0 0 0 0 0
1 1 1 1 1 1 1 1 1 1 1 1 1 1 1 1 1 1 1 1 1 1 1 0 0 0 1 1 1 1 0 0 0 0 0 0 0 0 0 0 0 0 0
1 1 1 1 1 1 1 1 1 1 1 1 1 1 1 0 1 1 1 0 0 0 0 0 0 0 0 0 0 0 0 0 0 0 0 0 0 0 0 0 0 0 0
1 1 1 1 1 0 0 0 0 0 0 1 1 0 0 0 0 0 0 0 0 0 0 0 0 0 0 0 0 0 0 0 0 0 0 0 0 0 0 0 0 0 0
1 1 1 1 1 0 0 0 0 0 0 0 1 0 0 0 0 0 0 0 0 0 0 0 0 0 0 0 0 0 0 0 0 1 1 1 0 1 1 0 0 0 0
1 1 1 1 1 0 0 0 0 0 0 1 1 1 0 0 0 0 0 0 0 0 0 0 0 0 0 0 0 0 0 0 0 1 1 1 1 1 1 0 0 0 0
1 1 1 1 1 1 0 0 0 0 0 1 1 1 1 0 0 0 0 0 0 0 0 0 0 0 0 0 0 0 0 0 0 0 0 0 1 1 1 0 0 0 0
1 1 1 1 1 1 0 0 0 0 0 0 1 1 0 0 0 0 0 0 0 0 0 0 0 0 0 0 0 0 0 0 0 0 0 0 0 1 1 0 0 0 0
2 2 1 1 1 1 1 0 0 0 0 0 0 0 0 0 0 0 0 0 0 0 0 0 0 0 0 0 0 0 0 0 0 0 0 0 0 1 1 0 0 0 0
Wind_Speed
1 2 1 2 3 2 3 3 3 4 4 4 5 5 4 4 5 3 2 7 9 10 11 12 12 12 11 11 11 11 12 12 13 13 13 13 14 13 13 12 12 12 12
1 2 2 2 2 2 2 3 3 3 3 3 4 4 4 5 4 4 3 5 10 12 13 13 12 12 12 11 11 11 11 12 12 13 13 14 14 14 14 14 14 13 13
1 2 2 1 1 2 2 2 3 2 2 3 3 4 4 4 4 4 4 4 5 10 13 12 12 12 12 12 11 11 11 12 12 13 13 14 14 14 15 15 15 15 14
2 2 1 1 2 2 2 2 1 1 2 2 3 3 3 3 4 4 4 4 4 4 7 12 12 12 12 13 13 12 12 12 12 13 13 14 15 14 15 16 16 16 15
2 1 2 2 2 2 1 2 1 2 3 3 3 3 3 3 3 5 4 4 3 3 3 7 11 13 14 15 14 14 13 13 13 13 14 14 14 14 15 15 16 17 17
2 2 2 2 2 2 1 1 1 2 2 2 5 4 3 3 3 3 4 3 3 4 4 4 5 8 12 14 14 14 14 14 13 13 13 13 13 12 13 13 14 15 15
2 2 2 2 2 2 1 2 2 3 3 2 2 3 4 4 3 3 3 3 3 3 3 4 3 3 4 9 11 12 12 13 13 13 13 12 11 11 12 12 13 13 14
2 2 2 1 1 2 2 2 2 2 2 2 1 2 2 2 2 4 3 3 3 2 3 4 3 3 3 3 5 9 10 10 11 12 12 11 11 11 11 12 13 13 14
2 2 1 1 2 2 1 2 2 3 2 3 1 1 2 1 2 2 2 2 2 2 3 3 4 3 4 3 4 7 9 9 11 10 10 10 11 11 12 12 13 13 13
2 1 1 2 2 2 2 3 2 3 3 3 2 2 2 1 2 2 2 2 3 4 3 3 3 4 4 3 4 7 9 9 10 11 11 10 11 12 13 13 13 13 14
2 1 1 2 2 2 2 3 2 3 2 2 2 2 3 2 3 3 4 3 3 3 2 3 2 2 3 3 4 6 10 10 10 11 11 11 11 12 13 14 14 14 14
1 1 1 1 2 2 2 2 2 3 2 3 3 3 2 2 3 3 3 4 4 3 3 3 3 3 3 3 6 8 10 10 11 11 11 12 12 12 12 14 15 15 15
1 1 1 1 2 2 3 2 3 3 3 4 3 3 3 3 3 3 4 4 4 3 3 3 2 2 3 2 3 7 9 10 10 10 10 11 11 11 12 12 14 14 14
2 1 1 2 2 3 3 3 3 3 3 3 5 3 3 3 3 3 3 3 4 3 3 3 2 2 2 2 3 6 5 10 10 9 9 10 10 11 11 11 11 12 13
2 1 2 2 2 3 3 3 3 3 3 4 4 4 3 3 3 3 3 3 3 4 4 3 2 2 2 2 3 3 3 8 9 9 9 9 10 11 11 10 10 10 11
2 2 3 3 3 3 3 3 3 3 3 3 3 3 3 3 3 3 2 2 2 3 4 3 2 2 2 2 3 2 3 7 9 10 10 10 10 10 11 11 11 11 11
3 3 3 3 3 3 3 3 4 3 3 3 3 3 3 3 3 3 2 2 2 2 3 3 2 2 2 2 1 2 3 4 5 10 10 10 10 10 10 10 10 11 11
3 3 3 4 4 3 2 3 4 4 3 3 3 3 3 3 2 2 2 3 2 2 3 4 3 2 2 2 2 2 3 3 3 7 10 10 11 11 11 10 10 11 11
3 3 3 3 3 3 3 3 3 4 3 3 2 2 2 2 3 2 2 2 2 3 2 2 3 3 2 2 2 3 3 2 4 4 8 10 10 11 11 10 10 10 11
3 3 3 3 3 3 4 4 4 3 3 3 2 2 2 2 3 2 2 2 2 2 2 3 3 3 2 3 2 2 2 2 3 3 3 4 7 9 10 10 10 10 11
3 3 3 4 4 3 4 5 5 4 3 3 3 2 2 2 3 3 3 3 3 2 2 2 3 3 3 2 2 2 3 2 3 2 2 2 2 3 5 7 9 10 10
4 3 4 4 4 5 6 7 6 5 3 3 3 3 3 3 5 4 4 5 4 3 3 3 3 3 3 3 3 3 3 3 3 2 1 3 2 2 3 3 6 8 10
3 3 3 3 4 5 6 7 7 4 3 2 2 2 3 4 4 4 4 5 4 5 5 4 4 4 4 3 3 4 3 3 4 3 2 3 2 3 3 3 4 6 8
2 2 2 2 3 4 5 6 8 4 3 3 2 2 2 3 5 5 4 4 3 3 4 3 4 5 5 4 3 4 4 4 4 3 2 3 2 2 3 2 4 5 7
2 2 2 2 2 3 4 6 6 4 3 3 3 3 3 3 5 7 4 4 5 4 4 5 6 7 8 8 4 3 3 3 4 3 2 2 3 2 2 2 3 4 6
2 2 2 2 2 2 3 5 7 3 4 4 2 2 4 4 4 6 4 4 5 5 5 6 5 5 5 5 5 4 3 3 3 3 2 2 2 2 2 2 2 2 3
Wind_Direction
256 261 248 222 237 232 230 245 246 250 248 249 256 259 251 250 252 239 219 205 201 208 218 224 223 220 218 219 221 220 218 216 216 214 213 212 210 209 211 213 216 215 213
242 259 254 242 255 259 249 246 255 255 251 255 263 275 263 252 248 243 230 214 209 208 214 219 220 217 218 220 220 220 221 218 217 217 215 213 214 213 213 215 218 218 216
270 261 266 267 283 275 267 261 264 256 258 262 261 268 270 263 261 255 245 233 216 215 216 217 217 217 218 221 223 223 224 222 221 222 219 215 215 217 216 216 217 217 218
293 292 287 293 290 284 278 267 281 297 283 280 274 270 267 264 266 257 248 239 231 227 217 217 218 219 220 223 226 227 227 227 225 224 223 219 216 217 219 218 218 218 218
290 297 288 286 288 295 291 299 319 286 288 287 275 259 257 251 253 257 252 250 242 232 223 217 220 223 224 225 227 229 230 229 229 225 224 223 220 218 218 219 219 219 218
279 280 268 288 291 280 280 296 299 277 270 274 288 290 271 248 236 244 250 251 234 233 235 227 214 227 229 229 228 231 233 232 231 227 225 224 222 219 218 218 219 219 218
287 276 294 282 282 281 292 297 296 296 286 281 292 296 275 251 235 236 232 234 234 232 228 229 213 206 219 229 228 229 232 233 232 229 227 226 222 220 219 219 219 219 219
271 271 279 291 293 291 294 286 282 278 284 296 290 302 292 273 286 258 234 230 230 231 235 240 233 213 211 201 216 225 227 228 231 230 229 226 223 223 222 222 222 221 221
255 274 274 285 291 280 283 279 274 276 285 287 261 248 274 288 310 275 273 269 283 264 245 238 224 218 220 211 203 219 221 218 225 229 231 230 228 227 228 226 224 224 223
259 248 277 283 278 285 283 284 292 276 271 283 281 254 260 276 274 292 288 277 267 260 249 252 240 216 214 211 205 203 209 210 218 228 232 234 231 228 228 227 227 228 227
251 222 212 252 270 274 278 284 291 281 270 275 278 277 276 272 250 253 282 286 274 260 254 247 250 225 211 208 204 206 204 205 213 224 231 234 236 233 230 229 230 231 231
273 291 262 271 278 282 281 280 277 280 281 276 278 279 272 267 271 263 271 276 277 270 257 247 243 234 223 217 222 209 200 205 211 219 226 231 234 235 235 234 233 233 233
301 305 318 297 286 287 278 273 274 272 274 274 267 270 274 269 274 269 270 274 277 277 265 253 237 240 246 221 222 206 202 207 213 217 223 228 230 232 235 237 237 237 238
308 317 308 284 276 276 286 278 267 265 267 265 268 265 270 270 268 268 271 278 284 285 278 272 248 235 245 233 217 207 203 210 212 212 216 223 225 227 230 235 238 239 239
295 318 298 291 292 292 290 285 275 274 273 265 264 263 265 267 270 270 266 262 266 285 288 280 262 243 232 214 202 213 204 210 212 213 215 219 222 225 228 230 232 234 237
324 306 297 294 286 280 282 281 280 271 273 270 265 270 277 281 276 274 274 281 272 267 281 291 287 284 280 264 216 223 223 207 211 215 217 220 223 227 229 230 232 231 232
309 298 305 302 294 290 294 292 289 280 276 277 281 276 276 288 299 302 303 288 278 276 278 293 300 297 279 279 251 240 242 210 207 215 219 220 222 225 229 231 234 232 229
310 310 307 304 305 311 308 301 302 301 294 288 292 303 305 304 310 305 305 299 291 281 276 286 291 293 291 267 255 247 260 240 230 215 217 224 226 226 227 229 232 231 227
315 318 314 319 325 325 330 325 322 317 317 310 308 309 311 321 312 301 290 297 299 298 288 285 290 290 295 297 293 279 271 260 255 232 220 225 228 229 227 229 232 231 227
329 333 338 342 345 356 6 356 344 333 340 338 336 338 334 320 303 301 293 294 294 295 291 287 284 291 293 293 307 296 290 283 282 271 254 238 228 227 228 233 235 231 226
348 355 1 1 3 16 12 6 352 346 345 342 353 358 346 347 342 320 320 318 312 301 300 300 299 308 306 318 316 301 302 301 285 275 283 268 235 226 230 236 240 236 227
353 360 5 6 16 16 21 17 2 342 346 342 352 342 334 358 349 338 326 314 308 304 306 303 301 297 299 303 306 301 303 304 296 277 269 278 259 244 239 230 228 222 219
351 358 8 23 41 39 25 9 359 335 327 327 331 331 337 351 356 338 320 312 304 277 263 267 281 285 288 292 297 296 290 286 281 279 276 276 260 254 249 250 226 216 214
340 352 357 23 53 44 25 7 350 332 328 329 327 335 345 355 355 339 326 328 320 307 283 264 269 276 284 282 278 279 274 280 280 273 261 270 275 271 271 257 237 229 218
337 339 352 27 56 53 21 1 350 333 338 335 357 23 13 22 357 348 337 329 321 313 304 294 277 275 279 278 273 288 282 278 287 283 259 260 270 272 276 272 261 250 232
352 344 356 20 57 57 22 0 353 340 344 340 359 48 39 16 351 345 333 322 316 315 319 313 296 281 273 273 259 240 261 274 287 294 291 288 291 296 290 263 241 234 233